Regional Weather Roundup
Issued by NWS

Home | Current Version | Previous Version | Graphics & Text | Print | Product List | Glossary On
Versions: 1 2 3 4 5 6 7 8 9 10 11 12 13 14 15 16 17 18 19 20 21 22 23 24 25 26 27 28
000
ASUS45 KSLC 231710
RWRUT

UTAH REGIONAL WEATHER ROUNDUP
NATIONAL WEATHER SERVICE SALT LAKE CITY UT
1100 AM MDT THU MAR 23 2017

UTZ001>011-023>025-231800-

NORTHERN UTAH

CITY           SKY/WX    TMP DP  RH WIND       PRES   REMARKS
BRIGHAM CITY     N/A     41  36  83 N9        29.81R
HILL AFB       LGT RAIN  37  36  93 NW14      29.80R FOG     WCI  29
LOGAN          RAIN      41  38  89 NW5       29.80R FOG
OGDEN          LGT RAIN  38  36  92 NW8       29.80R WCI  32
SALT LAKE CITY RAIN      40  37  89 NW17      29.82R FOG     WCI  31
WENDOVER       CLOUDY    46  27  46 NW24G33   29.87R
HEBER CITY     MIX PCPN  39  36  87 CALM      29.75R

$$

UTZ011>015-024>027-231800-

CENTRAL/NORTHEAST UTAH

CITY           SKY/WX    TMP DP  RH WIND       PRES   REMARKS
PROVO AIRPORT  LGT RAIN  39  36  87 NE5       29.82R FOG
MOAB/CANYONLAN PTSUNNY   53  34  48 SW10      29.74R
DELTA          CLOUDY    36  34  93 NW7       29.86R WCI  30
PRICE          RAIN      42  40  92 E6        29.75R FOG
RICHFIELD      PTSUNNY   41  37  87 S18G25    29.84
ROOSEVELT      RAIN      43  37  81 CALM      29.78R
VERNAL         LGT RAIN  47  40  76 SW7       29.75R

$$

UTZ013>016-019>022-027-231800-

SOUTHERN UTAH

CITY           SKY/WX    TMP DP  RH WIND       PRES   REMARKS
BRYCE CANYON   CLOUDY    36  28  73 W10       29.83S WCI  28
CEDAR CITY     PTSUNNY   41  33  73 S13       29.85R
MILFORD        CLOUDY   N/A N/A N/A N13       29.85R
ST GEORGE      CLOUDY    51  39  63 N6        29.88R
HANKSVILLE     CLOUDY    50  36  57 SW16      29.79R
KANAB          MOSUNNY   46  36  66 S14       29.90
BLANDING       CLOUDY    41  35  79 S7        29.90S

$$

REGIONAL REPORTS     COLORADO/ARIZONA

CITY           SKY/WX    TMP DP  RH WIND       PRES   REMARKS
CRAIG, CO      CLOUDY    56  31  38 SW17G25   29.74F
GRAND JUNCTION CLOUDY    52  39  61 NW12      29.75F
RIFLE, CO      CLOUDY    57  31  37 W23       29.73F
MONTROSE, CO   PTSUNNY   57  29  34 N10G17    29.75F
CORTEZ, CO     CLOUDY    42  34  73 NW15G25   29.81S
COLORADO CITY  CLOUDY    45  37  76 W6        29.90S
PAGE, AZ       PTSUNNY   49  32  52 CALM      29.82S
GRAND CANYON   PTSUNNY   36  33  89 SW13      29.89R WCI  27
KINGMAN, AZ    SUNNY     51  27  39 SW17      29.93R
FLAGSTAFF, AZ  FLURRIES  32  30  92 SW5       29.91S WCI  27

$$

REGIONAL REPORTS    NEVADA/IDAHO/WYOMING

CITY           SKY/WX    TMP DP  RH WIND       PRES   REMARKS
LAS VEGAS, NV  PTSUNNY   61  32  33 NW16G28   29.90R
ELY, NY        LGT SNOW  35  33  92 NW8       29.92R FOG     WCI  29
ELKO, NV       MOSUNNY   42  29  59 N5        30.00R
POCATELLO, ID  CLOUDY    38  36  92 W20       29.90R WCI  28
BURLEY, ID     CLOUDY    39  31  72 W21G31    29.91R WCI  29
FORT BRIDGER,  CLOUDY    39  39 100 W12       29.75S WCI  31
EVANSTON, WY   LGT SNOW  33  30  88 NW6       29.75R FOG     WCI  28
ROCK SPRINGS,  CLOUDY    42  37  82 SW14      29.72R
KEMMERER, WY   SNOW      36  32  87 SW5       29.73R VSB 1/2 WCI  32

$$




USA.gov is the U.S. government's official web portal to all federal, state and local government web resources and services.